Showing default

KINEIS-1C, 60081

Orbit data source: Space-Track

KINEIS-1C, 60081 is a French payload satellite in SSO that was launched on Thu, 20 Jun 2024 UTC via an ELECTRON launch vehicle from the Rocket Lab Launch Complex (RLLC). Payload-class satellites include a variety of spacecraft equipped with specific instruments for various scientific and technological missions. These include communications satellites like Starlink; space stations such as the ISS; scientific satellites like the Hubble; Earth observation satellites from companies like Planet Labs, Umbra, and HawkEye 360; GPS; miniature CubeSats for education and research; and military/defense satellites.

Loading next visibility...
Identifier
60081, 2024-114C
Orbit
SSO
Last TLE update
2 hours ago
Origin
Manufacturer
KINEIS
Mission
Operational Commercial Communications
Bus & Motor
CUBESAT 16U, Unknown motor
Mass
28 kg wet, 28 kg dry
Launch date (UTC)
2024-06-20 (11 months ago)
Launch vehicle
ELECTRON
Launch site
Rocket Lab Launch Complex (RLLC)
Object type
Payload
Rocket body
Debris
Shape & HBR
Box + 2 Pan + 1 Ant, 1.6 m
Radar Cross Section
0.229 m², Medium (>0.1 m² and < 1m²)

Expand to show TLE details & history

TLE from 2 hours ago
0 KINEIS-1C
1 60081U 24114C   25129.20835050  .00002168  00000-0  29844-3 0  9996
2 60081  98.0114 149.7057 0002603  76.8416 283.3085 14.79296951 47627
Epoch: 2025-05-09T05:00Z
Definitive object data (Epoch: 2025-05-09T05:00:01.483Z)
Latitude
-0.00006°
Longitude
-152.56826°
Altitude
634.142 km
Speed
7.541 km/s
True Right ascension
09h 58m 49s
True Declination
0° 00' 00"
Sunlit
Object was in daylight at TLE epoch
Visualization TLE readout
Latitude
64.89943°
Longitude
44.90721°
Altitude
641.288 km
Speed
7.544 km/s
Apparent Right ascension
01h 46m 12s
Apparent Declination
18° 20' 29"
Sunlit
Object is in daylight
Visualization observer readout
Local Sidereal Time
15:17:09
Azimuth
24.555° NE
Elevation
-28.003°
Doppler factor
1
Orbital elements
Apogee altitude
630.415 km
Perigee altitude
626.767 km
Semi-major axis
7,006.728 km
Eccentricity
0.0002603
Inclination
98.0114°
RAAN
149.7057°
Arg. of periapsis
76.8416°
True anomaly
283.27947°
Mean anomaly
283.3085°
Eccentric anomaly
283.29399°
Mean motion
3.70058 °/min
BSTAR
0.00029844
Orbital period
97.28 mins
Loading maneuver chart data...
Loading SW <> Apogee altitude chart data...
Loading historical data...
Loading historical data...
Loading historical data...
Loading historical data...
Loading historical data...
Loading historical data...
Loading historical data...

KINEIS-1C Visibility forecast

Observer location: undefined°, undefined°

Span
Click to sort rows by Start time (UTC) header in descending order
Start Az.
Max El. time (UTC)
Max El. Az.
Max El.
End time (UTC)
End Az.
7 mins2025-05-09 13:41:12.957Z30.22° NE2025-05-09 13:45:12.957Z103.143° ESE31.792°2025-05-09 13:48:12.957Z161.513° S
4 mins2025-05-09 15:19:12.957Z325.057° NNW2025-05-09 15:21:12.957Z291.926° WNW17.733°2025-05-09 15:23:12.957Z259.891° W
5 mins2025-05-10 00:38:12.957Z115.306° SE2025-05-10 00:40:12.957Z74.366° E26.52°2025-05-10 00:43:12.957Z16.708° NNE
4 mins2025-05-10 02:15:12.957Z236.122° WSW2025-05-10 02:16:12.957Z254.797° W20.797°2025-05-10 02:19:12.957Z308.269° NW
|